Location: Laas
(43.4693°N, 0.3073°E)
Time: 16:05:03
(UTC+00:00)

Helios 1A Rocket - Pass Details

Date: 25 October 2020
Orbit: 562 x 587 km, 98.3° (Epoch: 23 November)

Event Time Altitude Azimuth Distance (km) Brightness Sun altitude
Rises 18:34:09 0° 173° (S) 2,797 6.4 -17.8°
Reaches altitude 10° 18:36:19 10° 176° (S) 1,900 5.5 -18.2°
Maximum altitude 18:40:24 63° 258° (WSW) 653 3.4 -18.9°
Drops below altitude 10° 18:44:30 10° 340° (NNW) 1,903 5.8 -19.7°
Sets 18:46:40 0° 344° (NNW) 2,803 6.7 -20.1°
